Location: Kelowna
(49.8880°N, 119.4960°W)
Time: 15:58:50
(UTC-07:00)

TIGRISAT - Pass Details

Date: 29 April 2024
Orbit: 594 x 672 km, 97.7° (Epoch: 27 May)

Event Time Altitude Azimuth Distance (km) Brightness Sun altitude
Rises 04:51:53 0° 169° (SSE) 2,895 ? -7.2°
Reaches altitude 10° 04:54:05 10° 170° (S) 1,981 ? -6.9°
Maximum altitude 04:58:23 77° 257° (WSW) 633 ? -6.3°
Drops below altitude 10° 05:02:39 10° 344° (NNW) 1,959 ? -5.7°
Sets 05:04:49 0° 346° (NNW) 2,859 ? -5.4°
